Tracy, MN

8:40 PM CDT on August 28, 2016 (GMT -0500)
Tracy

Weather History for KTKC - December, 2012

Change the Weather History Date:

Saturday, December 29, 2012

  Actual Average (KMML) Record (KMML)
Temperature  
Mean Temperature 7 °F -  
Max Temperature 13 °F 21 °F 57 °F (1999)
Min Temperature 1 °F 5 °F -12 °F (1983)
Degree Days  
Heating Degree Days 58    
Moisture  
Dew Point 4 °F    
Average Humidity 86    
Maximum Humidity 90    
Minimum Humidity 76    
Precipitation  
Precipitation 0.00 in - - ()
Sea Level Pressure  
Sea Level Pressure 30.08 in    
Wind  
Wind Speed 5 mph (WSW)    
Max Wind Speed 12 mph    
Max Gust Speed -    
Visibility 9 miles    
Events Snow    
Averages and records for this station are not official NWS values.
T = Trace of Precipitation, MM = Missing Value Source: NWS Daily Summary

Daily Weather History Graph

Daily Weather History Graph

Search for Another Location

Airport or City:

Trip Planner

Search our weather history database for the weather conditions in past years. The results will help you decide how hot, cold, wet, or windy it might be!

Date:

Astronomy

Dec. 29, 2012 Rise Set
Actual Time 7:57 AM CST 4:51 PM CST
Civil Twilight 7:24 AM CST 5:25 PM CST
Nautical Twilight 6:47 AM CST 6:01 PM CST
Astronomical Twilight 6:12 AM CST 6:37 PM CST
Moon 6:29 PM CST 8:28 AM CST
Length of Visible Light 10h 00m
Length of Day
8h 54m
Full, 98% of the Moon is Illuminated
Dec 29
Full
Jan 4
Last Quarter
Jan 11
New
Jan 18
First Quarter
Jan 26
Full

Hourly Weather History & Observations

Time (CST) Temp. Windchill Dew Point Humidity Pressure Visibility Wind Dir Wind Speed Gust Speed Precip Events Conditions
12:16 AM 12.7 °F 3.6 °F 10.4 °F 90% 30.05 in 7.0 mi NW 5.8 mph - N/A Snow Light Snow
12:36 AM 12.7 °F - 10.4 °F 90% 30.05 in 7.0 mi Calm Calm - N/A Snow Light Snow
12:56 AM 12.0 °F 4.1 °F 9.5 °F 90% 30.05 in 7.0 mi WNW 4.6 mph - N/A Snow Light Snow
1:16 AM 11.7 °F - 9.3 °F 90% 30.04 in 5.0 mi Calm Calm - N/A Snow Light Snow
1:36 AM 11.7 °F - 9.1 °F 90% 30.04 in 7.0 mi Calm Calm - N/A   Overcast
1:56 AM 10.4 °F - 8.1 °F 90% 30.04 in 7.0 mi Calm Calm - N/A   Overcast
2:16 AM 11.1 °F - 8.6 °F 90% 30.04 in 7.0 mi Calm Calm - N/A   Overcast
2:36 AM 10.8 °F 1.2 °F 8.2 °F 90% 30.05 in 5.0 mi WNW 5.8 mph - N/A Snow Light Snow
2:56 AM 10.6 °F -0.2 °F 8.1 °F 90% 30.05 in 5.0 mi WNW 6.9 mph - N/A Snow Light Snow
3:15 AM 10.0 °F - 7.5 °F 90% 30.05 in 5.0 mi Calm Calm - N/A Snow Light Snow
3:36 AM 8.6 °F - 6.1 °F 89% 30.06 in 7.0 mi Calm Calm - N/A Snow Light Snow
3:56 AM 9.3 °F - 6.8 °F 89% 30.06 in 7.0 mi Calm Calm - N/A   Overcast
4:16 AM 9.7 °F - 7.3 °F 90% 30.07 in 7.0 mi Calm Calm - N/A Snow Light Snow
4:36 AM 9.1 °F - 6.4 °F 89% 30.06 in 10.0 mi Calm Calm - N/A   Overcast
4:56 AM 7.7 °F 1.0 °F 5.0 °F 89% 30.06 in 7.0 mi West 3.5 mph - N/A Snow Light Snow
5:16 AM 6.4 °F -2.4 °F 3.6 °F 88% 30.06 in 10.0 mi WSW 4.6 mph - N/A   Clear
5:36 AM 5.4 °F -5.2 °F 2.5 °F 88% 30.06 in 7.0 mi WSW 5.8 mph - N/A   Clear
6:16 AM 3.9 °F -5.3 °F 0.5 °F 86% 30.06 in 10.0 mi WSW 4.6 mph - N/A   Clear
6:36 AM 3.0 °F -8.0 °F -0.6 °F 85% 30.06 in 10.0 mi SW 5.8 mph - N/A   Clear
6:56 AM 3.2 °F -9.1 °F -0.2 °F 86% 30.06 in 10.0 mi SW 6.9 mph - N/A   Clear
7:16 AM 2.8 °F -8.2 °F -0.6 °F 86% 30.06 in 10.0 mi SW 5.8 mph - N/A   Clear
7:36 AM 2.7 °F -8.4 °F -0.9 °F 85% 30.06 in 10.0 mi WSW 5.8 mph - N/A   Clear
7:56 AM 1.9 °F -10.6 °F -1.7 °F 85% 30.06 in 10.0 mi WSW 6.9 mph - N/A   Clear
8:16 AM 2.7 °F -9.7 °F -0.8 °F 86% 30.06 in 10.0 mi SW 6.9 mph - N/A   Clear
8:36 AM 3.2 °F -10.3 °F -0.0 °F 86% 30.08 in 10.0 mi WSW 8.1 mph - N/A   Clear
8:56 AM 3.6 °F -9.8 °F 0.3 °F 86% 30.08 in 7.0 mi WSW 8.1 mph - N/A   Clear
9:16 AM 3.7 °F -9.6 °F 0.5 °F 86% 30.07 in 10.0 mi SW 8.1 mph - N/A   Clear
9:36 AM 4.6 °F -9.5 °F 1.6 °F 87% 30.08 in 10.0 mi WSW 9.2 mph - N/A   Clear
9:56 AM 5.7 °F -8.2 °F 2.7 °F 87% 30.08 in 10.0 mi WSW 9.2 mph - N/A   Clear
10:16 AM 7.0 °F -6.6 °F 4.1 °F 88% 30.08 in 10.0 mi WSW 9.2 mph - N/A   Clear
10:36 AM 7.7 °F -6.6 °F 5.0 °F 89% 30.08 in 10.0 mi WSW 10.4 mph - N/A   Clear
10:56 AM 8.6 °F -6.3 °F 5.9 °F 89% 30.07 in 10.0 mi WSW 11.5 mph - N/A   Clear
11:16 AM 9.0 °F -4.2 °F 6.3 °F 89% 30.07 in 10.0 mi WSW 9.2 mph - N/A   Clear
11:36 AM 9.1 °F -4.9 °F 6.3 °F 88% 30.07 in 10.0 mi WSW 10.4 mph - N/A   Clear
11:56 AM 9.5 °F -5.2 °F 6.1 °F 86% 30.07 in 10.0 mi WSW 11.5 mph - N/A   Clear
12:16 PM 10.8 °F -2.0 °F 6.3 °F 82% 30.07 in 10.0 mi WSW 9.2 mph - N/A   Scattered Clouds
12:36 PM 12.2 °F 2.9 °F 7.2 °F 80% 30.07 in 10.0 mi West 5.8 mph - N/A   Mostly Cloudy
12:56 PM 12.6 °F 1.1 °F 7.2 °F 79% 30.08 in 10.0 mi West 8.1 mph - N/A   Overcast
1:16 PM 13.1 °F 7.1 °F 7.0 °F 77% 30.07 in 10.0 mi West 3.5 mph - N/A   Mostly Cloudy
1:36 PM 11.8 °F 2.5 °F 5.5 °F 76% 30.07 in 10.0 mi West 5.8 mph - N/A   Scattered Clouds
1:56 PM 12.0 °F 2.7 °F 5.9 °F 76% 30.06 in 10.0 mi West 5.8 mph - N/A   Clear
2:16 PM 12.0 °F 2.7 °F 6.3 °F 78% 30.06 in 10.0 mi West 5.8 mph - N/A   Clear
2:36 PM 11.8 °F 1.3 °F 5.9 °F 77% 30.06 in 10.0 mi West 6.9 mph - N/A   Clear
2:56 PM 10.6 °F -0.2 °F 5.0 °F 78% 30.07 in 7.0 mi West 6.9 mph - N/A Snow Light Snow
3:15 PM 9.9 °F 0.2 °F 4.6 °F 79% 30.08 in 7.0 mi West 5.8 mph - N/A Snow Light Snow
3:36 PM 9.1 °F -0.7 °F 4.1 °F 80% 30.09 in 10.0 mi WSW 5.8 mph - N/A   Clear
3:56 PM 8.6 °F 0.1 °F 4.1 °F 82% 30.09 in 10.0 mi WSW 4.6 mph - N/A   Clear
4:16 PM 8.2 °F -3.0 °F 4.1 °F 83% 30.08 in 7.0 mi WSW 6.9 mph - N/A   Clear
4:35 PM 7.3 °F -5.2 °F 3.4 °F 84% 30.09 in 7.0 mi WSW 8.1 mph - N/A   Clear
4:56 PM 6.4 °F -6.3 °F 2.8 °F 85% 30.09 in 7.0 mi WSW 8.1 mph - N/A   Clear
5:16 PM 6.8 °F -5.9 °F 3.2 °F 85% 30.09 in 7.0 mi WSW 8.1 mph - N/A   Clear
5:36 PM 7.5 °F -3.9 °F 4.6 °F 88% 30.09 in 7.0 mi WSW 6.9 mph - N/A   Clear
5:56 PM 6.6 °F -6.1 °F 3.9 °F 89% 30.09 in 7.0 mi WSW 8.1 mph - N/A   Clear
6:16 PM 6.8 °F -5.9 °F 4.1 °F 89% 30.09 in 7.0 mi SW 8.1 mph - N/A   Clear
6:35 PM 7.7 °F - 4.8 °F 88% 30.09 in 10.0 mi Calm Calm - N/A   Clear
6:56 PM 6.1 °F -7.8 °F 3.0 °F 87% 30.10 in 10.0 mi WSW 9.2 mph - N/A   Clear
7:16 PM 7.5 °F -6.0 °F 4.3 °F 87% 30.11 in 10.0 mi WSW 9.2 mph - N/A   Clear
7:36 PM 6.6 °F -6.1 °F 3.4 °F 87% 30.10 in 10.0 mi WSW 8.1 mph - N/A   Clear
7:56 PM 6.4 °F -5.2 °F 2.8 °F 85% 30.09 in 10.0 mi SW 6.9 mph - N/A   Clear
8:16 PM 5.2 °F -6.7 °F 1.8 °F 86% 30.11 in 10.0 mi SW 6.9 mph - N/A   Clear
8:36 PM 4.8 °F -8.3 °F 1.4 °F 86% 30.11 in 10.0 mi SW 8.1 mph - N/A   Clear
8:56 PM 5.5 °F -6.3 °F 2.1 °F 86% 30.12 in 10.0 mi SW 6.9 mph - N/A   Clear
9:16 PM 5.4 °F -6.5 °F 1.6 °F 84% 30.12 in 10.0 mi WSW 6.9 mph - N/A   Clear
9:36 PM 5.5 °F -5.0 °F 2.1 °F 86% 30.12 in 10.0 mi WSW 5.8 mph - N/A   Clear
9:55 PM 5.9 °F -4.5 °F 2.3 °F 85% 30.12 in 10.0 mi WSW 5.8 mph - N/A   Clear
10:16 PM 5.9 °F -5.8 °F 1.8 °F 83% 30.12 in 10.0 mi WSW 6.9 mph - N/A   Clear
10:36 PM 5.5 °F -5.0 °F 1.8 °F 84% 30.12 in 10.0 mi SW 5.8 mph - N/A   Clear
10:56 PM 6.4 °F -5.2 °F 2.7 °F 84% 30.12 in 10.0 mi WSW 6.9 mph - N/A   Clear
11:16 PM 6.6 °F -6.1 °F 2.3 °F 82% 30.12 in 10.0 mi WSW 8.1 mph - N/A   Clear
11:36 PM 5.5 °F -7.4 °F 1.4 °F 83% 30.13 in 10.0 mi SW 8.1 mph - N/A   Clear
11:56 PM 6.4 °F -6.3 °F 2.3 °F 83% 30.12 in 10.0 mi SW 8.1 mph - N/A   Clear